Vertical_Velocity
-1 1 -1 3 2 9 -1 1 -2 -2 5 2 7 4 4 3 1 0 -9 14 1 6 7 3 3 -1 1 1 2 -1 -1 -2 -0 -3 -6 -1 -3 -4 -1 0 -1 0 1 -1 2
-2 1 3 0 -2 11 -3 -4 5 -2 -3 3 6 10 2 0 -2 -6 13 1 6 4 -0 2 0 2 -1 0 1 1 -4 -3 4 8 -6 -1 -2 -0 -3 -2 -0 0 -1 -1 1
-1 -0 3 4 5 4 1 4 -1 0 -4 -10 8 5 -0 4 1 -3 5 7 4 2 6 6 7 6 1 3 -6 -7 -10 5 2 6 1 2 -2 -6 1 -2 2 4 0 -0 -1
0 1 1 0 -1 1 1 1 -0 2 -3 -3 4 11 18 3 -5 -10 0 8 7 3 3 5 -1 1 4 -3 -1 -2 -0 5 -1 3 7 -5 -0 -3 0 3 7 1 5 2 -1
0 3 4 -0 -1 -0 0 4 2 -4 5 -1 -7 6 11 13 -7 5 6 6 -0 1 2 1 -1 -1 -1 0 2 -2 -1 -0 0 6 5 3 -4 -2 -1 2 -1 -4 -1 1 1
3 -1 -1 1 -0 -1 1 -1 1 1 -0 1 -4 -3 20 -4 3 1 1 4 5 3 -1 -1 -2 12 11 3 1 4 -1 1 -0 7 5 1 -0 5 -5 -1 -1 -2 1 1 3
1 2 0 0 -0 -2 -0 0 1 -0 1 3 1 0 -10 -6 -3 -5 -1 5 -5 5 2 -1 7 2 5 4 8 5 -1 1 -2 3 2 4 10 -5 2 1 2 -1 -1 0 0
1 1 0 1 0 -1 -3 -1 -4 2 0 -3 1 -4 -15 18 1 -7 4 4 8 -1 8 11 3 8 5 2 5 5 5 3 2 1 1 5 -3 1 -2 -2 -0 -1 -3 -3 -1
1 -0 1 1 0 -2 -0 0 -4 -4 2 1 -4 -1 -14 -17 -3 9 1 4 3 8 6 14 6 2 6 4 4 15 -5 -1 5 1 2 0 2 2 1 1 -0 0 1 0 -2
-2 -1 -1 -0 -1 -1 -2 -2 0 -0 1 4 6 -4 -0 8 7 -3 10 6 4 10 9 5 4 0 3 0 -18 -19 -5 1 -4 -9 1 5 1 -1 1 -1 3 2 -2 -1 -0
-3 -1 -2 -0 -1 -3 0 1 -2 -1 3 2 4 -1 -1 7 -8 13 21 -1 6 10 -7 2 -5 -36 3 6 3 5 5 1 -1 2 1 -4 -0 -2 2 0 -2 -1 -1 -4 -0
-0 -2 -2 -1 -1 -2 -2 -1 -0 -1 1 6 4 3 3 10 -4 18 8 3 -3 0 10 6 -32 8 6 5 2 4 4 4 6 4 4 3 1 -4 -6 0 -0 2 -2 0 -2
1 -1 -1 -4 -0 -1 -1 -2 0 -1 -1 2 -4 -8 -3 -1 -6 4 5 7 5 2 -5 -10 -11 4 3 1 5 1 -2 -1 -0 0 4 4 1 -4 0 -3 -0 3 3 2 -0
0 0 -2 -1 -1 2 -2 -2 -2 -3 3 1 -1 -6 2 5 -13 10 23 14 9 -6 4 5 6 -10 -8 2 8 4 3 2 4 4 -12 4 -9 -7 -4 4 -5 -4 -2 -2 -2
-1 1 -3 -0 -0 -1 -1 -3 -3 -4 -7 0 -7 2 6 -16 5 -6 11 10 15 -19 -5 -13 -1 -3 -1 -12 13 -2 2 2 2 4 2 3 5 -8 -0 -9 -11 -6 -7 -3 0
-1 -2 -2 -1 -3 -1 -2 -3 -3 -7 -13 -5 -1 0 0 5 2 6 6 11 5 10 14 6 -4 -2 -8 0 5 2 1 6 6 6 6 -3 -3 -9 -9 -27 -1 0 -6 -4 -1
-1 -1 1 -1 -2 -1 -4 -2 -3 -8 4 -5 -3 -2 7 12 3 -6 33 14 -10 -1 8 3 -0 6 3 18 10 -2 4 1 0 3 -7 1 12 -29 1 -0 -4 -6 -5 1 -1
-4 -2 2 -3 -1 -1 -3 -4 -10 2 -2 7 1 -3 1 3 3 -11 6 26 15 -4 -3 -3 9 -3 -9 -17 -45 -13 10 -11 -7 -2 -2 2 -6 -24 -13 -0 -1 -2 1 4 1
-2 -3 3 -0 -1 -2 -3 -14 3 3 -1 -2 0 -1 -2 7 12 0 -13 19 -3 -0 -17 -2 2 -9 -1 -2 6 -10 -10 10 1 -0 2 -8 -2 -5 -6 2 -3 -6 0 -2 -0
-5 -4 1 -2 -3 -3 -4 -4 1 1 -3 6 1 1 5 -1 2 2 6 -6 -8 -4 0 -6 -1 0 3 13 13 -26 35 4 2 -2 0 -1 -1 -12 -12 -8 -7 -12 -9 -6 0
-2 -7 -3 -1 -3 -2 -10 -3 0 4 1 -4 4 4 1 3 3 4 4 18 14 13 1 10 1 -6 14 -4 -20 12 0 5 9 1 -6 -2 -10 -17 -9 -0 -8 -9 -7 -2 2
-5 -2 0 0 4 -7 -4 -3 1 -2 3 -0 5 8 -3 -2 -6 3 3 5 2 14 8 15 11 -1 -38 -9 3 -0 -5 -2 -1 -8 4 1 -15 1 6 2 -4 -5 -9 -7 -2
-5 -5 -4 -4 -4 -2 1 1 -3 -6 -2 -2 -0 3 2 -4 3 -3 -1 -2 9 14 -1 0 8 3 23 20 8 -2 -11 -8 11 8 -13 1 -7 -9 -5 2 0 0 -0 7 7
-3 -4 -3 -7 -1 0 -1 -1 -0 4 -3 0 -2 2 5 2 6 -7 -3 -7 4 5 2 -1 -0 -7 -18 -51 -4 11 9 9 5 18 -7 -14 -7 -4 -5 -12 -5 -12 -6 -4 0
-2 -4 -3 -6 -5 -0 -2 0 -4 -9 5 -3 -0 -0 -3 -3 1 1 -1 -6 7 2 3 10 -1 -1 -2 1 4 -1 -12 -7 -4 -15 5 -15 -4 -11 -11 -6 4 9 7 2 3
-5 -1 1 -2 -1 1 4 -2 -5 3 -4 -0 -2 -7 -2 -5 1 -7 3 -4 -4 3 5 -2 -2 -6 -2 4 6 0 9 8 -4 6 7 -7 -13 2 1 -7 -5 -3 9 -1 2
-3 -4 -1 0 -4 -2 1 1 1 -7 2 2 1 3 3 2 2 -0 -3 -2 -2 -2 1 7 6 -4 -4 -0 3 5 -29 -4 8 18 -5 -4 -22 -19 -8 -6 -7 -17 1 7 1
Height
3015 3013 3011 3010 3009 3008 3009 3008 3009 3011 3013 3019 3022 3026 3031 3036 3040 3044 3049 3064 3068 3069 3073 3078 3083 3088 3093 3097 3102 3105 3108 3109 3113 3116 3119 3123 3127 3129 3131 3133 3134 3135 3137 3139 3141
3011 3008 3007 3005 3005 3003 3003 3004 3003 3004 3005 3010 3016 3020 3024 3028 3032 3035 3052 3056 3060 3064 3068 3073 3079 3084 3088 3093 3097 3100 3102 3107 3113 3116 3117 3122 3126 3128 3130 3131 3133 3134 3136 3138 3141
3007 3004 3002 3000 2998 2998 2998 2999 2999 3000 3001 3004 3007 3013 3017 3022 3024 3031 3046 3050 3056 3060 3064 3068 3074 3079 3084 3089 3092 3095 3100 3107 3111 3114 3115 3119 3123 3126 3129 3130 3133 3135 3136 3138 3140
3004 3001 2999 2997 2995 2993 2993 2994 2995 2995 2996 2999 3000 3004 3009 3015 3024 3029 3037 3044 3049 3054 3058 3060 3066 3072 3078 3082 3087 3093 3098 3104 3107 3110 3113 3116 3120 3123 3127 3130 3133 3135 3137 3139 3140
3002 2999 2997 2995 2993 2991 2990 2990 2990 2991 2992 2994 2996 2997 3001 3006 3016 3024 3029 3036 3041 3046 3052 3056 3061 3067 3073 3079 3085 3089 3094 3100 3105 3107 3110 3113 3117 3121 3125 3128 3130 3133 3135 3138 3140
2999 2996 2994 2992 2990 2988 2987 2986 2987 2987 2987 2989 2991 2988 2992 2993 3010 3015 3019 3027 3035 3041 3048 3053 3058 3067 3073 3076 3082 3087 3092 3097 3103 3105 3106 3110 3115 3120 3123 3126 3128 3131 3134 3137 3140
2997 2994 2991 2989 2987 2986 2984 2983 2983 2983 2984 2985 2986 2985 2983 2989 3004 3011 3014 3020 3027 3036 3044 3053 3057 3063 3067 3074 3080 3084 3089 3093 3098 3103 3104 3108 3113 3116 3121 3124 3127 3130 3132 3135 3138
2995 2991 2989 2986 2984 2982 2981 2980 2979 2980 2980 2981 2982 2983 2978 2991 2995 3004 3010 3016 3022 3030 3041 3051 3054 3061 3065 3069 3075 3080 3084 3088 3093 3099 3101 3105 3107 3112 3117 3121 3124 3127 3130 3134 3137
2992 2989 2986 2983 2981 2979 2978 2977 2976 2977 2977 2978 2979 2978 2979 2982 2988 3001 3007 3014 3020 3027 3035 3044 3048 3053 3061 3064 3069 3073 3075 3081 3088 3094 3098 3102 3105 3109 3113 3118 3121 3125 3128 3131 3134
2990 2987 2984 2981 2979 2977 2975 2974 2973 2974 2975 2975 2973 2977 2979 2982 2987 2994 3004 3012 3017 3023 3029 3036 3040 3046 3052 3056 3052 3063 3071 3077 3082 3089 3094 3098 3101 3106 3110 3114 3118 3122 3125 3128 3131
2987 2984 2982 2979 2977 2975 2974 2973 2974 2973 2972 2972 2972 2973 2974 2976 2981 2990 2998 3006 3013 3017 3019 3027 3031 3029 3037 3049 3057 3065 3069 3073 3081 3085 3091 3095 3100 3104 3108 3111 3113 3117 3121 3125 3129
2984 2981 2980 2978 2976 2974 2972 2970 2970 2971 2969 2969 2969 2969 2971 2974 2977 2984 2992 2999 3006 3009 3017 3024 3019 3031 3043 3052 3058 3062 3066 3072 3078 3083 3089 3092 3096 3101 3103 3106 3110 3113 3116 3121 3125
2981 2979 2978 2977 2976 2974 2972 2970 2969 2968 2967 2967 2964 2964 2966 2969 2971 2980 2987 2995 3000 3008 3010 3013 3017 3030 3039 3048 3054 3058 3061 3068 3074 3080 3085 3088 3091 3094 3095 3099 3103 3107 3113 3117 3121
2981 2979 2978 2977 2977 2974 2972 2970 2969 2967 2965 2967 2965 2962 2962 2964 2967 2974 2979 2993 2997 3001 3011 3016 3021 3027 3035 3043 3051 3055 3062 3069 3073 3077 3080 3084 3083 3083 3087 3090 3096 3101 3105 3110 3114
2983 2980 2978 2977 2976 2974 2973 2969 2967 2965 2970 2968 2963 2961 2960 2960 2963 2969 2975 2985 2990 2996 3005 3010 3016 3022 3030 3036 3048 3056 3063 3069 3073 3076 3077 3077 3082 3074 3080 3084 3089 3093 3099 3105 3110
2985 2982 2980 2979 2977 2975 2972 2969 2967 2969 2970 2967 2963 2959 2956 2957 2960 2964 2971 2983 2990 2998 3003 3012 3018 3025 3029 3040 3048 3055 3063 3067 3070 3073 3071 3069 3074 3067 3070 3076 3083 3089 3095 3099 3104
2988 2984 2982 2980 2978 2975 2972 2970 2971 2972 2971 2968 2962 2958 2954 2953 2955 2962 2968 2973 2978 2988 2997 3008 3014 3018 3027 3037 3046 3053 3058 3064 3072 3071 3062 3061 3068 3061 3069 3074 3080 3085 3090 3094 3099
2990 2987 2985 2982 2979 2977 2974 2973 2973 2976 2973 2968 2964 2959 2956 2954 2958 2959 2959 2968 2978 2984 2992 3000 3010 3011 3018 3023 3024 3033 3044 3044 3057 3058 3057 3060 3057 3056 3067 3069 3074 3080 3085 3088 3092
2992 2989 2987 2985 2982 2979 2978 2974 2978 2977 2974 2968 2964 2961 2956 2954 2954 2961 2964 2962 2969 2978 2987 2995 3003 3009 3014 3020 3027 3033 3038 3043 3046 3049 3052 3051 3052 3054 3059 3064 3069 3074 3079 3083 3086
2993 2990 2988 2985 2983 2981 2980 2978 2978 2977 2973 2970 2967 2964 2959 2955 2955 2954 2957 2962 2966 2977 2985 2991 3003 3005 3012 3018 3024 3026 3033 3043 3044 3049 3050 3043 3044 3046 3052 3059 3065 3069 3074 3078 3081
2994 2992 2989 2987 2985 2983 2980 2981 2979 2976 2974 2971 2968 2965 2964 2962 2958 2956 2960 2964 2973 2979 2985 2990 2994 3003 3008 3008 3012 3021 3026 3031 3036 3036 3036 3044 3037 3043 3050 3056 3059 3064 3068 3072 3075
2997 2994 2990 2988 2988 2983 2983 2982 2981 2977 2974 2972 2969 2968 2967 2965 2961 2961 2962 2961 2963 2971 2978 2988 2991 2994 2997 3005 3011 3015 3018 3024 3027 3029 3030 3033 3035 3037 3043 3048 3053 3058 3062 3066 3069
2997 2996 2993 2990 2987 2986 2986 2984 2981 2978 2975 2971 2969 2968 2967 2966 2966 2962 2960 2962 2963 2966 2974 2978 2982 2988 2998 3002 3005 3010 3014 3018 3023 3024 3023 3031 3032 3039 3041 3044 3048 3052 3056 3059 3062
2997 2996 2994 2992 2991 2988 2986 2985 2983 2981 2978 2975 2972 2968 2967 2966 2965 2963 2962 2961 2960 2961 2968 2973 2976 2979 2982 2982 2992 2998 3004 3009 3014 3017 3019 3018 3028 3035 3039 3044 3047 3050 3052 3052 3055
3000 2998 2995 2993 2991 2989 2989 2987 2984 2981 2981 2977 2975 2972 2967 2962 2961 2961 2961 2961 2961 2961 2967 2970 2973 2978 2982 2987 2991 2992 2998 3004 3008 3009 3014 3016 3019 3028 3036 3040 3042 3043 3044 3046 3048
3004 3002 2998 2995 2993 2991 2988 2987 2984 2982 2979 2977 2974 2971 2967 2964 2963 2959 2961 2962 2963 2963 2966 2967 2973 2977 2980 2983 2987 2990 2994 2998 3001 3004 3007 3011 3010 3021 3029 3032 3034 3037 3038 3041 3042
3006 3003 3000 2999 2997 2995 2991 2988 2985 2982 2980 2974 2970 2967 2965 2965 2961 2959 2960 2961 2962 2962 2964 2970 2972 2974 2976 2979 2982 2984 2984 2987 2991 2996 3000 2998 3006 3017 3019 3023 3028 3031 3030 3036 3040